Retour au catalogue

STARLINK-31545

ActifCommunicationsVLEO
NORAD 59400·PAYLOAD·🇺🇸 United States

Lancé Apr 5, 2024 depuis Cape Canaveral Space Force Station

Loading…

Prochains Passages (prochaines 24 heures)

TLE

FraisSource: CelesTrak SupGP

Époque: Sep 15, 2026, 03:03 UTC

1 59400C 24064C   26258.12756944 -.00029399  00000+0 -10647-2 0  2586
2 59400  43.0007  66.1074 0001581 268.3251 334.4484 15.27597118    17

Suivez STARLINK-31545 en temps réel avec AllMySat

Download on the App Store